Time,TemperatureF,DewpointF,PressureIn,WindDirection,WindDirectionDegrees,WindSpeedMPH,WindSpeedGustMPH,Humidity,HourlyPrecipIn,Conditions,Clouds,dailyrainin,SoftwareType,DateUTC
2013-04-26 00:13:00,51.4,47.0,30.00,SW,225,2.7,-999.0,85,-99.99,,,0.00,Acu-Link.com,2013-04-26 07:13:00,
2013-04-26 00:28:00,51.4,46.7,30.01,WSW,247,1.7,-999.0,84,-99.99,,,0.00,Acu-Link.com,2013-04-26 07:28:00,
2013-04-26 00:44:00,51.6,46.9,30.00,SW,225,1.7,-999.0,84,-99.99,,,0.00,Acu-Link.com,2013-04-26 07:44:00,
2013-04-26 00:59:00,51.4,46.4,30.00,SSW,202,2.7,-999.0,83,-99.99,,,0.00,Acu-Link.com,2013-04-26 07:59:00,
2013-04-26 01:14:00,51.4,46.4,30.01,SW,225,1.7,-999.0,83,-99.99,,,0.00,Acu-Link.com,2013-04-26 08:14:00,
2013-04-26 01:29:00,51.3,46.3,30.00,WSW,247,3.2,-999.0,83,-99.99,,,0.00,Acu-Link.com,2013-04-26 08:29:00,
2013-04-26 01:44:00,51.1,46.1,30.00,ESE,112,1.7,-999.0,83,-99.99,,,0.00,Acu-Link.com,2013-04-26 08:44:00,
2013-04-26 01:59:00,50.2,45.6,30.00,SSW,202,2.2,-999.0,84,-99.99,,,0.00,Acu-Link.com,2013-04-26 08:59:00,
2013-04-26 02:15:00,48.9,45.2,30.00,SSW,202,2.2,-999.0,87,-99.99,,,0.00,Acu-Link.com,2013-04-26 09:15:00,
2013-04-26 02:30:00,48.2,44.8,30.00,South,180,2.7,-999.0,88,-99.99,,,0.00,Acu-Link.com,2013-04-26 09:30:00,
2013-04-26 02:45:00,47.8,45.0,30.00,WSW,247,2.2,-999.0,90,-99.99,,,0.00,Acu-Link.com,2013-04-26 09:45:00,
2013-04-26 03:00:00,47.5,44.7,30.00,WSW,247,2.2,-999.0,90,-99.99,,,0.00,Acu-Link.com,2013-04-26 10:00:00,
2013-04-26 03:15:00,47.5,45.0,30.01,North,0,0.0,-999.0,91,-99.99,,,0.00,Acu-Link.com,2013-04-26 10:15:00,
2013-04-26 03:31:00,46.9,44.7,30.01,WSW,247,1.7,-999.0,92,-99.99,,,0.00,Acu-Link.com,2013-04-26 10:31:00,
2013-04-26 03:46:00,46.9,45.0,30.02,SW,225,0.0,-999.0,93,-99.99,,,0.00,Acu-Link.com,2013-04-26 10:46:00,
2013-04-26 04:01:00,46.6,44.7,30.02,SSW,202,1.7,-999.0,93,-99.99,,,0.00,Acu-Link.com,2013-04-26 11:01:00,
2013-04-26 04:16:00,46.6,45.0,30.02,SSW,202,2.2,-999.0,94,-99.99,,,0.00,Acu-Link.com,2013-04-26 11:16:00,
2013-04-26 04:31:00,46.6,45.0,30.03,SSW,202,0.0,-999.0,94,-99.99,,,0.00,Acu-Link.com,2013-04-26 11:31:00,
2013-04-26 04:47:00,46.6,45.0,30.01,WSW,247,0.0,-999.0,94,-99.99,,,0.00,Acu-Link.com,2013-04-26 11:47:00,
2013-04-26 05:02:00,46.9,45.3,30.02,SW,225,0.0,-999.0,94,-99.99,,,0.00,Acu-Link.com,2013-04-26 12:02:00,
2013-04-26 05:17:00,46.9,45.5,30.02,SSW,202,0.0,-999.0,95,-99.99,,,0.00,Acu-Link.com,2013-04-26 12:17:00,
2013-04-26 05:32:00,46.6,45.2,30.01,WSW,247,0.0,-999.0,95,-99.99,,,0.00,Acu-Link.com,2013-04-26 12:32:00,
2013-04-26 05:47:00,46.4,45.0,30.03,SSW,202,0.0,-999.0,95,-99.99,,,0.00,Acu-Link.com,2013-04-26 12:47:00,
2013-04-26 06:03:00,46.2,44.8,30.04,SW,225,0.0,-999.0,95,-99.99,,,0.00,Acu-Link.com,2013-04-26 13:03:00,
2013-04-26 06:18:00,46.4,45.3,30.04,SW,225,0.0,-999.0,96,-99.99,,,0.00,Acu-Link.com,2013-04-26 13:18:00,
2013-04-26 06:33:00,47.3,46.2,30.05,SW,225,0.0,-999.0,96,-99.99,,,0.00,Acu-Link.com,2013-04-26 13:33:00,
2013-04-26 06:48:00,48.2,46.8,30.04,West,270,0.0,-999.0,95,-99.99,,,0.00,Acu-Link.com,2013-04-26 13:48:00,
2013-04-26 07:03:00,49.1,47.2,30.05,South,180,0.0,-999.0,93,-99.99,,,0.00,Acu-Link.com,2013-04-26 14:03:00,
2013-04-26 07:19:00,49.8,47.6,30.06,WSW,247,0.0,-999.0,92,-99.99,,,0.00,Acu-Link.com,2013-04-26 14:19:00,
2013-04-26 07:34:00,50.4,47.9,30.06,North,0,2.2,-999.0,91,-99.99,,,0.00,Acu-Link.com,2013-04-26 14:34:00,
2013-04-26 07:49:00,51.1,47.1,30.07,SSW,202,2.2,-999.0,86,-99.99,,,0.00,Acu-Link.com,2013-04-26 14:49:00,
2013-04-26 08:04:00,51.6,47.2,30.09,SSW,202,1.7,-999.0,85,-99.99,,,0.00,Acu-Link.com,2013-04-26 15:04:00,
2013-04-26 08:20:00,52.5,46.8,30.09,South,180,0.0,-999.0,81,-99.99,,,0.00,Acu-Link.com,2013-04-26 15:20:00,
2013-04-26 08:35:00,53.1,46.8,30.10,SSE,157,1.1,-999.0,79,-99.99,,,0.00,Acu-Link.com,2013-04-26 15:35:00,
2013-04-26 08:50:00,54.9,47.5,30.09,ESE,112,2.2,-999.0,76,-99.99,,,0.00,Acu-Link.com,2013-04-26 15:50:00,
2013-04-26 09:05:00,54.5,47.1,30.09,SE,135,3.2,-999.0,76,-99.99,,,0.00,Acu-Link.com,2013-04-26 16:05:00,
2013-04-26 09:20:00,56.8,48.6,30.09,East,90,3.7,-999.0,74,-99.99,,,0.00,Acu-Link.com,2013-04-26 16:20:00,
2013-04-26 09:36:00,57.7,48.0,30.10,SE,135,2.7,-999.0,70,-99.99,,,0.00,Acu-Link.com,2013-04-26 16:36:00,
2013-04-26 09:51:00,58.8,47.9,30.10,ESE,112,1.1,-999.0,67,-99.99,,,0.00,Acu-Link.com,2013-04-26 16:51:00,
2013-04-26 10:06:00,60.3,48.9,30.10,NW,315,2.2,-999.0,66,-99.99,,,0.00,Acu-Link.com,2013-04-26 17:06:00,
2013-04-26 10:21:00,61.3,49.0,30.10,NNE,22,2.7,-999.0,64,-99.99,,,0.00,Acu-Link.com,2013-04-26 17:21:00,
2013-04-26 10:36:00,62.2,49.4,30.09,South,180,2.7,-999.0,63,-99.99,,,0.00,Acu-Link.com,2013-04-26 17:36:00,
2013-04-26 10:52:00,63.3,49.6,30.09,NNE,22,3.7,-999.0,61,-99.99,,,0.00,Acu-Link.com,2013-04-26 17:52:00,
2013-04-26 11:07:00,64.4,50.7,30.09,NNW,337,2.2,-999.0,61,-99.99,,,0.00,Acu-Link.com,2013-04-26 18:07:00,
2013-04-26 11:22:00,64.4,50.7,30.09,NNE,22,3.2,-999.0,61,-99.99,,,0.00,Acu-Link.com,2013-04-26 18:22:00,
2013-04-26 11:37:00,66.4,51.2,30.09,North,0,6.3,-999.0,58,-99.99,,,0.00,Acu-Link.com,2013-04-26 18:37:00,
2013-04-26 11:52:00,66.7,51.9,30.10,NE,45,6.8,-999.0,59,-99.99,,,0.00,Acu-Link.com,2013-04-26 18:52:00,
2013-04-26 12:08:00,66.2,51.9,30.11,East,90,2.2,-999.0,60,-99.99,,,0.00,Acu-Link.com,2013-04-26 19:08:00,
2013-04-26 12:23:00,66.0,51.7,30.08,NE,45,3.2,-999.0,60,-99.99,,,0.00,Acu-Link.com,2013-04-26 19:23:00,
2013-04-26 12:38:00,68.0,52.7,30.08,NNE,22,3.2,-999.0,58,-99.99,,,0.00,Acu-Link.com,2013-04-26 19:38:00,
2013-04-26 12:54:00,67.1,52.3,30.08,NE,45,3.2,-999.0,59,-99.99,,,0.00,Acu-Link.com,2013-04-26 19:54:00,
2013-04-26 13:09:00,69.1,52.7,30.08,ENE,67,4.2,-999.0,56,-99.99,,,0.00,Acu-Link.com,2013-04-26 20:09:00,
2013-04-26 13:24:00,68.5,52.7,30.07,NNE,22,4.2,-999.0,57,-99.99,,,0.00,Acu-Link.com,2013-04-26 20:24:00,
2013-04-26 13:40:00,69.8,53.9,30.07,ENE,67,5.3,-999.0,57,-99.99,,,0.00,Acu-Link.com,2013-04-26 20:40:00,
2013-04-26 13:55:00,69.6,53.7,30.07,NNE,22,2.7,-999.0,57,-99.99,,,0.00,Acu-Link.com,2013-04-26 20:55:00,
2013-04-26 14:10:00,70.0,54.1,30.06,NE,45,3.2,-999.0,57,-99.99,,,0.00,Acu-Link.com,2013-04-26 21:10:00,
2013-04-26 14:25:00,69.6,53.2,30.05,NNE,22,4.7,-999.0,56,-99.99,,,0.00,Acu-Link.com,2013-04-26 21:25:00,
2013-04-26 14:41:00,69.4,53.0,30.05,SW,225,2.2,-999.0,56,-99.99,,,0.00,Acu-Link.com,2013-04-26 21:41:00,
2013-04-26 14:56:00,71.6,54.6,30.05,NNE,22,2.7,-999.0,55,-99.99,,,0.00,Acu-Link.com,2013-04-26 21:56:00,
2013-04-26 15:11:00,71.2,54.2,30.05,ESE,112,2.2,-999.0,55,-99.99,,,0.00,Acu-Link.com,2013-04-26 22:11:00,
2013-04-26 15:27:00,72.0,54.9,30.04,SW,225,2.2,-999.0,55,-99.99,,,0.00,Acu-Link.com,2013-04-26 22:27:00,
2013-04-26 15:42:00,71.4,54.4,30.04,NE,45,3.2,-999.0,55,-99.99,,,0.00,Acu-Link.com,2013-04-26 22:42:00,
2013-04-26 15:57:00,70.7,54.2,30.03,NE,45,1.7,-999.0,56,-99.99,,,0.00,Acu-Link.com,2013-04-26 22:57:00,
2013-04-26 16:12:00,71.1,54.6,30.03,NNW,337,1.7,-999.0,56,-99.99,,,0.00,Acu-Link.com,2013-04-26 23:12:00,
2013-04-26 16:27:00,71.2,54.7,30.03,West,270,2.7,-999.0,56,-99.99,,,0.00,Acu-Link.com,2013-04-26 23:27:00,
2013-04-26 16:43:00,70.2,54.2,30.02,WNW,292,2.2,-999.0,57,-99.99,,,0.00,Acu-Link.com,2013-04-26 23:43:00,
2013-04-26 17:13:00,70.5,53.5,30.03,SW,225,2.7,-999.0,55,-99.99,,,0.00,Acu-Link.com,2013-04-27 00:13:00,
2013-04-26 17:28:00,70.7,53.7,30.02,SW,225,1.7,-999.0,55,-99.99,,,0.00,Acu-Link.com,2013-04-27 00:28:00,
2013-04-26 17:43:00,70.0,53.1,30.02,NNE,22,3.2,-999.0,55,-99.99,,,0.00,Acu-Link.com,2013-04-27 00:43:00,
2013-04-26 17:59:00,68.7,52.8,30.01,ESE,112,3.7,-999.0,57,-99.99,,,0.00,Acu-Link.com,2013-04-27 00:59:00,
2013-04-26 18:14:00,69.3,52.9,30.02,North,0,2.2,-999.0,56,-99.99,,,0.00,Acu-Link.com,2013-04-27 01:14:00,
2013-04-26 18:29:00,68.9,52.5,30.02,ESE,112,1.7,-999.0,56,-99.99,,,0.00,Acu-Link.com,2013-04-27 01:29:00,
2013-04-26 18:44:00,66.4,52.1,30.02,NNE,22,2.2,-999.0,60,-99.99,,,0.00,Acu-Link.com,2013-04-27 01:44:00,
2013-04-26 19:00:00,64.6,51.3,30.02,NW,315,0.0,-999.0,62,-99.99,,,0.00,Acu-Link.com,2013-04-27 02:00:00,
2013-04-26 19:15:00,63.0,51.0,30.02,West,270,1.1,-999.0,65,-99.99,,,0.00,Acu-Link.com,2013-04-27 02:15:00,
2013-04-26 19:30:00,61.9,50.8,30.03,SSE,157,1.7,-999.0,67,-99.99,,,0.00,Acu-Link.com,2013-04-27 02:30:00,
2013-04-26 19:45:00,60.3,50.1,30.03,ESE,112,0.0,-999.0,69,-99.99,,,0.00,Acu-Link.com,2013-04-27 02:45:00,
2013-04-26 20:00:00,58.8,49.0,30.03,ESE,112,0.0,-999.0,70,-99.99,,,0.00,Acu-Link.com,2013-04-27 03:00:00,
2013-04-26 20:16:00,57.4,48.4,30.03,SW,225,0.0,-999.0,72,-99.99,,,0.00,Acu-Link.com,2013-04-27 03:16:00,
2013-04-26 20:31:00,55.9,47.7,30.05,South,180,0.0,-999.0,74,-99.99,,,0.00,Acu-Link.com,2013-04-27 03:31:00,
2013-04-26 20:46:00,54.7,46.9,30.05,SSE,157,0.0,-999.0,75,-99.99,,,0.00,Acu-Link.com,2013-04-27 03:46:00,
2013-04-26 21:01:00,53.8,46.4,30.07,ESE,112,1.7,-999.0,76,-99.99,,,0.00,Acu-Link.com,2013-04-27 04:01:00,
2013-04-26 21:16:00,53.1,46.8,30.05,SSE,157,1.7,-999.0,79,-99.99,,,0.00,Acu-Link.com,2013-04-27 04:16:00,
2013-04-26 21:32:00,52.5,46.5,30.06,ESE,112,2.2,-999.0,80,-99.99,,,0.00,Acu-Link.com,2013-04-27 04:32:00,
2013-04-26 21:47:00,52.0,46.7,30.06,SE,135,0.0,-999.0,82,-99.99,,,0.00,Acu-Link.com,2013-04-27 04:47:00,
2013-04-26 22:02:00,51.3,46.3,30.07,ESE,112,0.0,-999.0,83,-99.99,,,0.00,Acu-Link.com,2013-04-27 05:02:00,
2013-04-26 22:17:00,50.7,46.0,30.07,SSE,157,0.0,-999.0,84,-99.99,,,0.00,Acu-Link.com,2013-04-27 05:17:00,
2013-04-26 22:32:00,49.6,45.3,30.07,WSW,247,1.1,-999.0,85,-99.99,,,0.00,Acu-Link.com,2013-04-27 05:32:00,
2013-04-26 22:48:00,48.7,45.3,30.07,SW,225,2.2,-999.0,88,-99.99,,,0.00,Acu-Link.com,2013-04-27 05:48:00,
2013-04-26 23:03:00,48.4,44.7,30.07,West,270,0.0,-999.0,87,-99.99,,,0.00,Acu-Link.com,2013-04-27 06:03:00,
2013-04-26 23:18:00,47.7,44.6,30.08,SW,225,2.2,-999.0,89,-99.99,,,0.00,Acu-Link.com,2013-04-27 06:18:00,
2013-04-26 23:33:00,47.7,44.6,30.08,WSW,247,2.7,-999.0,89,-99.99,,,0.00,Acu-Link.com,2013-04-27 06:33:00,
2013-04-26 23:48:00,47.3,44.2,30.08,NW,315,0.0,-999.0,89,-99.99,,,0.00,Acu-Link.com,2013-04-27 06:48:00,